z/d,0,0,50,50,100,100,150,150,200,200,300,300,400,400,500,500,600,600,750,750,1000,1000,1250,1250,1500,1500,1750,1750,1900,1900,2000,2000
2019.02.12-01:00,1.94,276.30,2.03,278.72,2.02,277.88,2.04,280.77,1.96,276.49,1.87,274.55,1.88,274.49,1.76,269.06,1.63,271.31,1.42,270.05,1.25,266.06,.95,265.77,.71,261.25,.50,261.36,.49,258.44,.16,233.06
2019.02.12-02:00,2.04,277.48,2.11,280.57,2.09,279.66,2.03,282.94,1.92,277.69,1.83,276.11,1.80,276.30,1.71,270.23,1.57,272.31,1.40,269.48,1.25,266.47,.94,264.69,.72,260.63,.52,259.56,.50,256.38,.17,233.45
2019.02.12-03:00,2.17,280.45,2.22,282.45,2.20,282.19,2.03,284.04,1.91,278.25,1.82,278.28,1.72,277.50,1.66,271.25,1.51,272.32,1.38,268.27,1.24,266.26,.95,263.11,.75,260.29,.54,259.24,.52,255.76,.18,235.74
2019.02.12-04:00,2.26,282.04,2.33,283.79,2.30,284.46,2.06,285.15,1.93,278.91,1.82,281.24,1.66,278.29,1.63,272.40,1.47,272.06,1.38,267.00,1.24,265.14,.98,261.05,.78,259.61,.57,259.48,.56,255.71,.18,238.44
2019.02.12-05:00,2.33,281.69,2.43,283.39,2.40,284.83,2.14,285.37,2.00,279.41,1.80,283.46,1.63,278.55,1.62,273.66,1.45,271.70,1.39,265.81,1.24,263.54,1.01,259.49,.81,259.30,.60,260.87,.58,256.85,.18,242.04
2019.02.12-06:00,2.11,283.54,2.20,284.41,2.26,285.95,2.03,287.61,1.93,282.52,1.70,284.59,1.54,279.08,1.61,275.13,1.46,271.97,1.42,264.86,1.29,262.25,1.09,259.13,.90,259.96,.70,263.52,.67,259.77,.20,248.35
2019.02.12-07:00,1.81,287.12,1.87,287.49,2.03,287.58,1.86,289.42,1.77,286.26,1.58,284.38,1.47,278.56,1.60,276.45,1.49,272.44,1.47,264.25,1.36,262.14,1.19,259.96,.99,261.33,.79,266.27,.77,262.65,.22,253.60
2019.02.12-08:00,1.80,286.05,1.84,286.36,2.04,285.71,1.90,286.56,1.75,284.29,1.60,282.07,1.48,276.42,1.60,275.80,1.54,271.20,1.53,263.89,1.39,262.85,1.20,261.36,.99,263.25,.78,269.27,.75,265.19,.20,256.75
2019.02.12-09:00,1.83,283.23,1.87,283.65,2.09,283.73,1.97,283.62,1.79,280.63,1.64,279.00,1.52,273.70,1.62,273.64,1.59,269.91,1.58,264.08,1.39,263.62,1.18,263.14,.95,266.01,.73,273.23,.69,268.54,.18,260.41
2019.02.12-10:00,1.81,280.21,1.88,281.55,2.09,282.89,2.00,281.87,1.85,277.96,1.69,275.80,1.58,271.05,1.66,272.06,1.64,269.78,1.61,264.59,1.38,264.05,1.15,265.05,.89,269.09,.67,277.73,.63,272.38,.15,263.69
2019.02.12-11:00,1.80,278.44,1.87,280.79,2.07,283.19,2.02,281.79,1.91,277.44,1.74,273.52,1.64,269.36,1.66,271.57,1.65,270.21,1.62,265.44,1.38,264.60,1.12,266.92,.84,271.52,.60,281.66,.56,275.57,.13,263.97
2019.02.12-12:00,1.79,277.43,1.86,280.83,2.05,284.12,2.02,283.13,1.97,278.86,1.81,272.90,1.69,268.82,1.64,271.28,1.61,270.52,1.62,266.65,1.39,265.58,1.11,268.79,.79,273.00,.52,284.59,.49,277.85,.12,260.59
2019.02.12-13:00,1.82,277.08,1.87,281.31,2.04,284.98,2.02,284.71,2.02,281.37,1.88,274.16,1.72,269.20,1.60,271.03,1.56,270.56,1.60,267.99,1.40,266.61,1.10,270.54,.75,273.61,.45,286.04,.42,279.11,.11,254.78
2019.02.12-14:00,1.90,277.77,1.91,281.58,2.05,284.99,2.04,285.70,2.04,283.84,1.91,276.61,1.76,270.16,1.60,271.35,1.51,270.34,1.57,269.25,1.41,267.52,1.09,272.13,.72,273.77,.39,285.50,.37,279.06,.11,249.28
2019.02.12-15:00,2.03,279.93,1.95,281.07,2.07,283.85,2.07,286.01,2.03,285.31,1.90,278.98,1.79,271.74,1.63,272.78,1.50,269.98,1.53,270.26,1.41,268.69,1.07,273.57,.70,273.67,.34,282.29,.34,276.89,.11,245.21
2019.02.12-16:00,2.12,282.45,1.97,279.43,2.10,282.00,2.09,285.79,1.99,285.72,1.86,280.17,1.82,274.00,1.67,275.29,1.52,269.96,1.51,271.11,1.42,270.49,1.06,274.81,.70,273.22,.32,276.28,.32,272.12,.12,242.40
2019.02.12-17:00,2.17,283.15,2.00,277.63,2.17,280.65,2.12,285.24,1.99,285.51,1.85,280.58,1.83,276.15,1.71,277.97,1.57,270.59,1.50,271.69,1.42,272.46,1.04,275.44,.69,271.98,.32,268.58,.32,265.19,.13,240.27
2019.02.12-18:00,2.10,284.05,1.96,278.02,2.14,281.59,2.05,285.38,1.93,286.20,1.83,282.03,1.81,277.48,1.74,280.16,1.63,272.37,1.52,272.07,1.43,273.89,1.05,275.07,.71,270.00,.37,262.14,.37,259.23,.14,240.91
2019.02.12-19:00,2.01,285.45,1.91,279.58,2.05,283.65,1.98,285.36,1.86,286.47,1.78,283.35,1.77,277.74,1.76,280.68,1.69,274.32,1.57,272.93,1.45,274.80,1.06,274.57,.73,268.63,.42,260.67,.42,257.67,.16,244.42
2019.02.12-20:00,2.00,285.41,1.97,280.69,2.05,283.74,1.99,283.94,1.85,284.73,1.76,282.71,1.78,277.18,1.81,279.87,1.74,275.73,1.63,274.19,1.45,275.63,1.03,274.19,.72,267.95,.44,261.97,.44,258.61,.16,248.55
2019.02.12-21:00,2.00,284.26,2.00,281.13,2.07,283.36,2.02,282.55,1.85,282.32,1.76,281.04,1.80,276.47,1.88,279.12,1.79,277.10,1.67,275.24,1.45,276.49,1.00,273.59,.69,267.57,.43,264.62,.43,261.22,.15,253.66
2019.02.12-22:00,1.99,282.38,1.99,280.70,2.09,283.50,2.04,281.54,1.85,279.54,1.78,279.52,1.83,276.15,1.91,278.92,1.83,278.39,1.68,276.24,1.44,277.38,.97,272.74,.66,267.12,.41,267.55,.41,264.49,.13,258.34
2019.02.12-23:00,1.97,280.50,1.98,280.56,2.08,283.88,2.05,281.27,1.89,277.60,1.81,279.14,1.86,276.62,1.93,279.38,1.84,279.67,1.69,277.44,1.42,278.11,.95,271.53,.63,266.08,.39,269.61,.38,267.03,.12,260.92
2019.02.12-24:00,1.94,278.71,1.96,280.51,2.06,283.99,2.05,281.52,1.95,277.20,1.85,279.79,1.91,277.84,1.92,280.34,1.84,281.12,1.69,278.76,1.38,278.48,.93,270.08,.60,264.79,.35,270.68,.33,268.46,.11,260.22
2019.02.13-01:00,1.96,277.08,1.97,279.51,2.05,283.57,2.05,281.86,2.02,278.22,1.89,280.83,1.96,279.53,1.89,281.51,1.82,282.68,1.68,279.67,1.33,278.31,.91,268.55,.58,263.59,.32,270.41,.29,268.02,.10,256.06
2019.02.13-02:00,2.06,276.88,2.04,278.35,2.04,282.80,2.06,282.14,2.07,279.71,1.91,281.62,1.99,281.07,1.86,282.45,1.79,283.96,1.67,279.90,1.29,277.54,.91,267.37,.57,262.87,.28,268.77,.24,265.28,.09,249.62
2019.02.13-03:00,2.21,278.64,2.16,278.36,2.09,282.00,2.09,282.31,2.10,280.64,1.92,281.83,1.99,282.12,1.81,283.01,1.77,284.66,1.66,279.76,1.26,276.15,.92,266.48,.57,262.71,.25,265.35,.21,259.60,.09,242.61
2019.02.13-04:00,2.38,281.41,2.32,280.15,2.17,281.67,2.12,282.46,2.12,280.90,1.90,281.40,1.97,282.81,1.77,283.46,1.73,284.72,1.64,279.71,1.24,274.35,.94,265.65,.58,262.98,.25,259.81,.20,251.15,.10,236.59
2019.02.13-05:00,2.48,283.87,2.44,283.06,2.24,282.16,2.13,282.50,2.13,280.87,1.88,280.66,1.94,283.37,1.75,284.09,1.71,284.21,1.62,280.01,1.26,272.76,.96,264.78,.61,263.32,.26,252.91,.22,241.85,.11,231.56
2019.02.13-06:00,2.41,286.35,2.40,286.23,2.23,283.67,2.09,283.16,2.10,281.41,1.88,280.39,1.91,284.25,1.74,285.05,1.70,283.59,1.60,280.87,1.30,272.14,1.01,263.72,.66,263.27,.31,246.54,.28,234.61,.13,227.43
2019.02.13-07:00,2.22,288.37,2.21,288.16,2.14,284.85,2.00,283.76,2.04,282.27,1.87,280.80,1.87,285.48,1.73,285.82,1.74,283.26,1.61,281.98,1.36,272.80,1.07,263.15,.72,263.65,.38,244.44,.36,232.44,.15,226.16
2019.02.13-08:00,2.10,287.89,2.08,287.03,2.09,283.76,1.96,282.66,2.02,282.07,1.86,281.23,1.81,286.65,1.71,285.32,1.77,283.02,1.61,282.59,1.38,273.84,1.11,263.60,.75,264.96,.44,245.66,.42,232.78,.17,226.47
2019.02.13-09:00,2.10,285.66,2.08,284.22,2.11,281.80,1.99,280.92,2.01,280.65,1.82,281.03,1.74,286.86,1.70,283.58,1.79,282.53,1.59,282.39,1.37,274.56,1.13,265.07,.75,267.38,.46,249.58,.45,235.28,.17,228.41
2019.02.13-10:00,2.11,283.68,2.09,281.68,2.14,280.88,2.03,279.92,2.02,278.97,1.80,280.03,1.67,285.71,1.69,281.69,1.78,281.41,1.57,281.26,1.33,274.80,1.13,266.95,.73,270.19,.47,255.03,.46,239.00,.16,231.16
2019.02.13-11:00,2.09,282.76,2.11,280.20,2.15,280.88,2.03,279.40,2.03,277.98,1.79,278.70,1.62,283.90,1.69,280.24,1.77,279.79,1.55,279.46,1.30,274.32,1.12,268.69,.70,272.54,.46,260.81,.46,242.96,.15,233.80
2019.02.13-12:00,2.02,283.36,2.11,280.50,2.13,281.68,2.02,279.37,2.02,278.24,1.80,277.84,1.58,282.09,1.67,279.22,1.74,278.22,1.54,277.65,1.29,273.07,1.11,270.16,.66,274.15,.44,266.15,.45,246.88,.14,236.16
2019.02.13-13:00,1.97,285.33,2.12,282.12,2.11,283.03,2.00,280.10,2.00,279.61,1.80,277.83,1.55,280.27,1.64,277.98,1.69,276.77,1.53,276.25,1.29,271.82,1.09,271.51,.64,275.29,.40,269.92,.43,249.87,.13,237.20
2019.02.13-14:00,1.96,288.13,2.15,284.10,2.10,284.36,2.00,281.32,1.97,281.19,1.76,278.31,1.52,278.24,1.59,276.17,1.62,275.20,1.51,275.42,1.29,271.31,1.07,273.03,.61,276.30,.36,271.43,.40,251.48,.12,236.51
2019.02.13-15:00,1.99,291.65,2.18,286.66,2.09,286.34,2.01,283.39,1.94,282.73,1.70,278.88,1.51,276.16,1.54,273.94,1.56,273.23,1.47,274.63,1.28,271.28,1.04,274.57,.58,277.15,.31,270.75,.38,252.40,.11,235.57
2019.02.13-16:00,2.03,294.60,2.25,289.56,2.08,288.65,2.01,285.76,1.91,283.91,1.64,279.12,1.51,274.34,1.51,271.66,1.51,270.91,1.42,273.38,1.27,271.45,1.02,276.05,.56,277.66,.28,268.09,.36,253.38,.11,235.65
2019.02.13-17:00,2.07,294.05,2.31,290.59,2.05,288.70,1.98,285.96,1.88,283.34,1.59,278.11,1.52,272.78,1.49,269.83,1.49,268.97,1.38,272.15,1.25,272.36,.99,278.16,.54,278.55,.26,265.63,.35,255.54,.11,237.88
2019.02.13-18:00,2.16,291.90,2.35,290.71,2.00,287.23,1.93,284.85,1.85,281.86,1.57,276.51,1.53,272.05,1.50,269.11,1.49,268.18,1.35,271.39,1.24,273.90,.96,280.36,.51,278.14,.25,260.28,.33,256.21,.11,239.62
2019.02.13-19:00,2.25,290.15,2.32,290.43,1.94,285.18,1.88,283.60,1.84,280.63,1.58,274.97,1.56,272.32,1.53,269.60,1.51,268.96,1.33,271.44,1.23,275.98,.92,282.26,.48,275.15,.25,251.04,.33,253.95,.11,239.63
2019.02.13-20:00,2.25,288.27,2.22,289.03,1.89,283.16,1.84,282.93,1.84,280.42,1.63,274.09,1.61,273.41,1.56,270.82,1.52,270.86,1.32,272.17,1.21,278.26,.88,283.43,.46,270.18,.29,242.49,.34,250.35,.12,239.13
2019.02.13-21:00,2.14,285.96,2.06,287.26,1.80,281.42,1.74,282.48,1.79,280.81,1.65,274.07,1.63,274.66,1.58,272.45,1.51,273.13,1.30,273.42,1.19,280.56,.86,283.82,.49,265.76,.35,240.70,.39,249.54,.14,241.29
2019.02.13-22:00,2.11,283.01,1.99,284.98,1.82,279.68,1.74,281.48,1.79,281.12,1.67,274.30,1.63,275.45,1.57,274.23,1.48,275.15,1.27,274.78,1.16,282.73,.83,283.89,.51,262.68,.40,242.02,.42,250.51,.14,244.36
2019.02.13-23:00,2.19,281.53,2.03,283.46,1.91,279.15,1.80,281.36,1.83,281.84,1.72,274.88,1.65,276.02,1.55,275.79,1.45,276.56,1.24,275.72,1.10,284.07,.79,283.31,.52,260.56,.43,244.93,.43,252.73,.14,247.85
2019.02.13-24:00,2.29,281.85,2.11,282.84,2.03,280.19,1.89,282.51,1.86,282.90,1.77,276.04,1.67,276.88,1.52,277.30,1.43,277.41,1.21,276.00,1.04,284.06,.74,281.56,.53,259.14,.44,248.91,.42,256.01,.14,251.64
2019.02.14-01:00,2.38,282.29,2.22,282.47,2.15,282.15,1.96,283.80,1.85,283.42,1.83,277.78,1.71,278.95,1.51,279.56,1.42,278.22,1.21,276.08,.98,282.48,.70,277.99,.54,257.65,.44,252.37,.41,258.99,.13,254.26
2019.02.14-02:00,2.44,281.90,2.35,282.47,2.24,284.08,2.00,284.06,1.84,282.96,1.88,279.95,1.74,281.88,1.51,282.65,1.43,279.23,1.21,276.35,.94,279.56,.67,272.69,.55,256.09,.42,254.68,.39,261.27,.12,255.72
2019.02.14-03:00,2.49,281.67,2.48,283.01,2.30,285.13,2.07,283.77,1.86,282.24,1.89,281.75,1.73,284.10,1.49,285.57,1.42,280.45,1.21,276.77,.92,276.08,.66,266.87,.57,255.60,.41,257.00,.37,264.01,.11,257.52
2019.02.14-04:00,2.51,282.22,2.54,283.30,2.33,285.40,2.16,284.02,1.90,281.57,1.87,282.54,1.71,285.03,1.47,287.25,1.42,281.71,1.21,277.15,.91,272.66,.68,261.87,.59,256.57,.39,259.68,.35,267.45,.10,259.72
2019.02.14-05:00,2.47,282.05,2.52,283.02,2.31,285.33,2.20,284.79,1.96,281.34,1.85,282.45,1.70,285.61,1.45,286.96,1.40,282.53,1.21,277.19,.92,269.68,.71,258.33,.60,258.67,.38,262.40,.33,270.92,.09,261.26
2019.02.14-06:00,2.35,281.28,2.39,282.79,2.22,284.87,2.17,285.40,1.99,281.90,1.83,281.82,1.71,286.35,1.44,284.98,1.38,282.46,1.22,276.58,.95,267.37,.77,256.52,.62,261.34,.37,264.63,.32,273.34,.08,261.39
2019.02.14-07:00,2.16,281.77,2.18,283.15,2.08,284.14,2.07,285.86,1.96,282.84,1.81,281.35,1.70,286.89,1.46,282.61,1.39,281.20,1.25,275.24,1.00,266.12,.83,256.24,.63,263.59,.37,265.14,.30,273.08,.08,257.98
2019.02.14-08:00,1.99,283.82,2.00,284.54,1.97,283.20,1.97,285.98,1.93,283.68,1.82,281.57,1.69,286.62,1.50,280.60,1.42,278.83,1.28,273.41,1.04,265.75,.89,257.06,.63,265.11,.36,263.23,.27,268.50,.07,249.08
2019.02.14-09:00,1.89,285.50,1.88,285.82,1.92,281.90,1.89,285.33,1.90,284.02,1.83,282.20,1.68,286.05,1.54,279.24,1.44,275.96,1.31,271.78,1.07,265.87,.94,258.99,.63,266.32,.35,260.17,.25,260.73,.07,238.67
2019.02.14-10:00,1.85,284.51,1.82,284.94,1.92,280.12,1.85,283.63,1.88,283.08,1.84,282.76,1.68,286.15,1.55,278.49,1.47,273.58,1.33,270.80,1.09,266.27,.97,261.73,.62,267.37,.35,257.22,.25,252.24,.08,230.36
2019.02.14-11:00,1.86,281.73,1.82,282.61,1.97,279.19,1.84,281.74,1.88,281.42,1.84,283.33,1.66,286.79,1.55,277.56,1.49,271.97,1.34,270.33,1.09,266.59,.97,264.74,.60,268.13,.35,254.81,.25,244.79,.09,224.91
2019.02.14-12:00,1.89,279.06,1.87,281.55,2.03,279.94,1.87,280.77,1.90,280.39,1.83,284.17,1.61,287.09,1.53,276.31,1.51,271.14,1.34,270.27,1.08,266.47,.95,267.57,.58,269.03,.34,253.90,.26,239.88,.09,221.55
2019.02.14-13:00,1.96,277.66,1.95,282.23,2.07,281.80,1.92,281.38,1.93,280.95,1.80,285.24,1.53,286.07,1.50,275.09,1.51,271.15,1.33,270.86,1.07,266.16,.92,269.95,.56,270.26,.33,254.20,.26,237.17,.09,219.81
2019.02.14-14:00,2.04,277.75,2.02,282.85,2.13,283.78,1.99,282.89,1.93,282.46,1.74,286.25,1.44,283.14,1.46,273.94,1.48,271.87,1.30,272.21,1.07,266.45,.88,272.03,.54,271.85,.31,254.72,.26,235.78,.09,218.64
2019.02.14-15:00,2.10,279.20,2.06,282.72,2.16,285.66,2.03,284.22,1.91,283.63,1.66,286.95,1.37,279.06,1.42,272.91,1.44,272.92,1.26,273.75,1.07,267.62,.84,274.06,.52,273.77,.30,255.67,.27,236.58,.09,219.57
2019.02.14-16:00,2.16,281.18,2.13,282.27,2.16,287.12,2.06,284.69,1.90,283.56,1.62,286.98,1.36,275.31,1.39,272.15,1.38,273.93,1.22,274.98,1.06,269.27,.80,276.15,.48,275.43,.28,255.95,.27,237.24,.09,220.56
2019.02.14-17:00,2.20,282.50,2.20,282.44,2.13,287.27,2.07,284.81,1.92,282.82,1.61,286.51,1.40,273.36,1.38,271.97,1.34,274.65,1.20,275.80,1.06,270.97,.74,278.25,.43,275.98,.25,254.53,.25,236.41,.09,220.59
2019.02.14-18:00,2.17,283.27,2.20,283.39,2.07,286.38,2.05,285.83,1.95,282.79,1.61,285.91,1.45,273.72,1.40,272.42,1.32,275.21,1.20,276.36,1.06,272.58,.70,279.89,.39,274.63,.23,251.51,.25,235.48,.08,221.46
2019.02.14-19:00,2.07,284.08,2.11,283.96,1.98,285.28,1.97,287.39,1.95,283.52,1.60,284.64,1.52,275.80,1.44,273.46,1.34,275.95,1.22,277.07,1.06,274.06,.67,280.87,.37,271.56,.24,248.67,.25,236.58,.09,225.33
2019.02.14-20:00,2.01,284.26,2.04,283.43,1.94,283.89,1.91,287.52,1.95,284.19,1.63,282.51,1.61,278.43,1.51,274.96,1.39,277.05,1.24,277.94,1.05,275.41,.64,281.20,.36,266.89,.25,244.77,.27,236.90,.09,228.51
2019.02.14-21:00,1.95,283.79,1.98,283.00,1.94,282.37,1.87,286.02,1.95,284.77,1.69,281.14,1.70,280.94,1.57,276.45,1.43,278.35,1.26,278.68,1.04,276.49,.61,279.98,.37,261.27,.28,242.04,.29,238.26,.10,232.55
2019.02.14-22:00,1.90,282.74,1.92,282.08,1.96,280.96,1.87,283.42,1.94,285.17,1.76,281.24,1.77,282.87,1.60,277.70,1.46,279.39,1.28,279.03,1.04,276.89,.60,276.79,.41,256.78,.32,242.46,.33,241.92,.11,238.43
2019.02.14-23:00,1.88,281.94,1.90,281.40,2.01,280.78,1.93,281.28,1.91,285.09,1.81,281.88,1.83,284.04,1.63,278.60,1.48,279.74,1.29,278.64,1.04,276.40,.59,272.11,.44,253.40,.36,243.98,.35,245.70,.11,243.78
2019.02.14-24:00,1.92,281.75,1.94,281.39,2.08,282.12,2.03,280.77,1.89,284.32,1.84,281.80,1.84,284.20,1.65,279.10,1.51,279.47,1.32,277.64,1.04,275.46,.59,267.21,.47,251.17,.37,246.36,.36,249.69,.11,249.04
2019.02.15-01:00,1.96,282.11,1.98,281.73,2.11,283.65,2.10,281.40,1.88,282.84,1.86,280.77,1.80,283.53,1.65,279.58,1.54,279.20,1.33,276.56,1.03,274.44,.61,263.03,.50,250.73,.38,250.55,.35,255.05,.10,255.78
2019.02.15-02:00,1.98,282.78,2.01,282.22,2.10,283.89,2.14,282.40,1.90,281.05,1.86,279.25,1.76,282.62,1.64,280.37,1.54,279.47,1.33,275.68,1.01,273.23,.65,260.28,.54,252.20,.38,256.36,.34,261.56,.10,263.59
2019.02.15-03:00,2.00,283.51,2.05,282.68,2.11,282.53,2.19,283.87,1.94,279.76,1.85,277.95,1.74,282.14,1.62,281.29,1.51,280.03,1.31,274.73,.99,271.54,.68,259.10,.56,254.59,.38,262.21,.33,267.72,.09,270.55
2019.02.15-04:00,2.00,284.20,2.07,282.88,2.18,281.01,2.20,285.59,2.01,279.78,1.84,277.35,1.74,282.51,1.58,282.13,1.46,280.43,1.29,273.67,.97,269.43,.72,259.00,.58,256.97,.36,266.63,.30,271.86,.08,274.13
2019.02.15-05:00,1.98,284.02,2.05,282.23,2.25,280.35,2.16,286.28,2.08,281.07,1.86,277.33,1.74,283.77,1.55,282.75,1.41,280.36,1.28,272.88,.97,267.36,.75,259.66,.59,259.81,.34,269.54,.26,273.46,.07,273.40
2019.02.15-06:00,1.97,282.73,2.02,280.93,2.27,280.45,2.10,285.45,2.14,282.90,1.88,277.52,1.73,285.27,1.51,282.81,1.36,279.51,1.26,272.55,.98,265.89,.77,260.88,.60,263.50,.32,271.26,.23,272.32,.06,268.09
2019.02.15-07:00,1.93,282.20,1.94,280.75,2.19,281.21,2.00,284.11,2.12,285.11,1.88,277.95,1.70,286.24,1.49,282.44,1.33,278.32,1.26,272.87,1.01,265.27,.79,262.22,.61,267.12,.32,270.76,.23,266.97,.06,257.06
2019.02.15-08:00,1.83,282.01,1.80,281.06,2.02,281.56,1.87,282.08,2.00,286.33,1.87,278.57,1.65,285.84,1.49,281.72,1.34,277.10,1.27,273.56,1.06,265.65,.83,263.44,.63,270.48,.34,269.58,.25,261.66,.07,250.01
2019.02.15-09:00,1.84,280.60,1.79,280.23,1.94,280.16,1.84,279.35,1.91,284.91,1.87,279.42,1.63,284.01,1.50,280.55,1.37,275.73,1.29,274.03,1.10,266.62,.85,264.42,.61,273.60,.34,268.41,.26,257.12,.08,245.68
2019.02.15-10:00,1.93,278.78,1.85,278.80,1.94,277.69,1.86,276.41,1.87,282.04,1.87,280.15,1.64,281.87,1.53,279.42,1.42,274.73,1.30,274.27,1.12,267.82,.86,265.51,.58,276.11,.32,266.39,.26,252.51,.08,242.23
2019.02.15-11:00,1.99,276.64,1.90,276.91,1.98,274.95,1.89,273.23,1.85,278.62,1.85,280.28,1.67,280.23,1.55,278.47,1.46,274.31,1.30,274.44,1.14,269.32,.87,267.28,.54,278.17,.31,264.46,.27,249.75,.08,241.06
2019.02.15-12:00,2.03,275.24,1.95,275.07,2.06,273.63,1.96,270.87,1.85,275.41,1.81,279.83,1.69,279.35,1.57,277.65,1.49,274.44,1.30,274.54,1.13,270.84,.87,269.54,.50,279.41,.29,262.24,.27,247.87,.08,240.26
2019.02.15-13:00,2.05,275.45,1.99,274.10,2.16,274.67,2.04,270.31,1.87,272.97,1.79,279.18,1.70,278.92,1.57,276.99,1.51,275.19,1.29,274.67,1.11,272.03,.86,271.98,.46,279.52,.28,259.63,.28,246.55,.08,239.15
2019.02.15-14:00,2.03,276.60,2.03,274.41,2.23,277.23,2.13,271.16,1.91,271.56,1.78,278.62,1.70,278.36,1.58,276.57,1.51,276.56,1.28,275.07,1.08,272.78,.83,274.48,.42,279.11,.27,257.80,.28,246.35,.08,238.59
2019.02.15-15:00,1.95,277.83,2.06,276.21,2.24,280.09,2.18,272.86,1.93,271.41,1.77,278.26,1.68,277.48,1.58,276.48,1.49,278.12,1.27,275.76,1.05,273.22,.79,277.03,.38,278.99,.25,257.60,.26,247.79,.08,239.43
2019.02.15-16:00,1.94,277.67,2.06,278.42,2.19,282.14,2.20,275.09,1.96,272.05,1.74,277.62,1.67,276.38,1.58,276.64,1.46,279.21,1.24,276.47,1.02,273.79,.74,279.99,.34,280.10,.22,260.48,.24,252.42,.07,243.80
2019.02.15-17:00,1.94,279.18,2.05,279.89,2.14,283.68,2.21,278.00,1.98,273.08,1.70,276.36,1.68,275.36,1.57,277.11,1.41,279.61,1.20,276.93,.98,274.81,.68,283.17,.31,281.31,.20,264.37,.22,258.25,.07,249.43
2019.02.15-18:00,1.91,280.82,2.05,280.29,2.08,284.73,2.19,280.79,2.02,274.35,1.68,274.93,1.70,274.64,1.54,277.91,1.36,279.58,1.15,277.39,.95,276.51,.63,285.88,.27,280.03,.18,265.11,.20,261.27,.06,251.89
2019.02.15-19:00,1.88,281.47,2.05,280.52,2.02,284.77,2.16,282.80,2.06,276.22,1.68,273.96,1.73,274.30,1.51,278.54,1.32,279.09,1.11,277.96,.92,278.73,.57,287.22,.24,274.21,.17,260.38,.18,259.09,.06,248.91
2019.02.15-20:00,1.83,280.75,2.04,281.00,1.98,283.85,2.10,284.20,2.07,278.80,1.69,273.58,1.75,274.47,1.47,278.46,1.29,278.02,1.09,278.47,.91,280.76,.53,286.22,.24,264.72,.18,252.88,.19,253.62,.06,243.53
2019.02.15-21:00,1.76,278.25,2.00,280.72,1.94,281.89,1.98,284.23,2.01,281.03,1.70,273.13,1.76,275.09,1.44,277.41,1.28,276.40,1.08,278.50,.90,282.15,.52,283.29,.27,258.11,.21,250.31,.21,251.75,.07,242.58
2019.02.15-22:00,1.68,274.37,1.94,278.92,1.94,279.30,1.87,282.00,1.90,281.60,1.70,272.22,1.77,276.22,1.43,275.57,1.28,274.49,1.06,277.74,.90,282.77,.53,279.43,.31,256.34,.24,253.18,.24,254.74,.07,246.50
2019.02.15-23:00,1.67,270.51,1.91,275.98,1.99,277.21,1.83,278.25,1.81,280.13,1.72,271.16,1.76,277.71,1.44,273.61,1.29,272.91,1.05,276.39,.88,282.65,.55,275.00,.36,256.20,.28,257.01,.26,258.50,.07,251.02
2019.02.15-24:00,1.70,268.35,1.93,273.17,2.03,276.24,1.84,274.72,1.77,277.54,1.73,270.59,1.72,278.86,1.45,272.19,1.29,272.16,1.03,274.69,.85,281.56,.56,269.93,.41,256.21,.30,259.96,.28,261.05,.08,253.73
2019.02.16-01:00,1.75,267.30,1.95,270.36,2.02,275.13,1.87,271.65,1.75,274.54,1.74,270.33,1.65,278.71,1.47,271.68,1.30,272.21,1.03,272.95,.82,279.61,.57,265.22,.45,257.18,.32,262.97,.29,263.34,.07,255.77
2019.02.16-02:00,1.77,267.07,1.93,267.98,1.97,273.43,1.89,269.35,1.75,271.87,1.75,270.05,1.58,277.07,1.45,272.00,1.27,272.43,1.03,271.28,.79,276.81,.59,261.73,.47,259.86,.33,267.06,.28,266.45,.07,258.94
2019.02.16-03:00,1.75,267.35,1.84,267.45,1.89,271.72,1.90,268.43,1.76,269.99,1.75,269.92,1.53,274.64,1.38,272.45,1.23,272.14,1.03,269.59,.76,273.10,.60,259.87,.49,264.50,.33,272.41,.28,270.64,.07,263.99
2019.02.16-04:00,1.70,268.24,1.77,268.04,1.85,270.72,1.92,269.24,1.80,269.36,1.74,270.03,1.49,272.28,1.29,272.44,1.17,271.39,1.02,268.07,.74,268.65,.61,259.42,.49,270.23,.32,277.81,.26,274.40,.06,268.44
2019.02.16-05:00,1.66,269.75,1.72,269.22,1.83,270.66,1.92,271.09,1.85,270.00,1.70,269.86,1.46,270.52,1.21,272.00,1.13,270.84,1.01,267.10,.73,264.50,.61,260.24,.47,276.33,.30,282.60,.23,276.79,.05,270.35
2019.02.16-06:00,1.63,271.85,1.68,270.62,1.80,271.04,1.87,272.44,1.87,271.46,1.66,268.91,1.44,269.98,1.16,271.67,1.10,271.04,1.00,266.82,.75,261.68,.61,261.74,.45,281.91,.27,286.37,.20,276.99,.04,268.54
2019.02.16-07:00,1.65,274.23,1.68,272.23,1.78,271.77,1.82,272.90,1.87,273.10,1.65,268.25,1.42,270.85,1.14,271.99,1.09,271.95,.99,267.12,.77,260.29,.62,263.19,.41,285.96,.22,287.76,.16,271.89,.03,255.84
2019.02.16-08:00,1.69,275.87,1.72,273.98,1.77,272.79,1.81,273.49,1.87,274.57,1.66,268.92,1.39,272.39,1.14,272.68,1.09,272.86,1.00,267.65,.81,260.25,.63,264.50,.37,287.52,.18,284.05,.12,255.96,.03,226.63
2019.02.16-09:00,1.75,275.83,1.77,275.43,1.74,273.31,1.81,274.51,1.86,275.88,1.67,270.62,1.35,273.81,1.15,273.22,1.09,273.08,1.01,268.17,.85,261.38,.65,265.65,.34,285.46,.16,272.41,.13,233.83,.04,207.76
2019.02.16-10:00,1.82,274.94,1.80,276.32,1.70,272.73,1.80,275.50,1.85,276.92,1.66,272.29,1.32,274.79,1.17,273.41,1.10,272.39,1.03,268.70,.87,263.27,.68,266.88,.33,280.18,.16,257.12,.17,222.24,.05,205.45
2019.02.16-11:00,1.87,274.13,1.82,276.54,1.69,270.99,1.77,275.61,1.82,277.13,1.63,272.88,1.30,275.51,1.19,273.11,1.11,270.74,1.05,269.20,.89,265.37,.69,268.61,.33,274.77,.19,247.96,.22,221.49,.07,210.22
2019.02.16-12:00,1.87,274.15,1.82,277.21,1.71,269.25,1.74,274.63,1.77,276.15,1.60,272.51,1.30,276.56,1.21,272.44,1.13,268.65,1.07,269.75,.89,266.96,.70,270.47,.34,270.90,.23,245.05,.26,225.07,.08,217.12
2019.02.16-13:00,1.82,275.34,1.80,278.82,1.76,268.83,1.73,273.34,1.71,274.12,1.58,271.91,1.30,277.78,1.23,271.29,1.17,266.88,1.08,270.68,.88,267.83,.68,272.01,.35,268.52,.25,244.99,.30,229.59,.09,223.76
2019.02.16-14:00,1.71,276.67,1.72,279.89,1.80,269.83,1.74,272.92,1.68,272.02,1.57,271.80,1.30,278.43,1.23,269.60,1.19,266.15,1.08,272.20,.87,268.43,.66,273.17,.35,267.36,.27,246.45,.32,234.51,.09,230.09
2019.02.16-15:00,1.60,276.08,1.62,278.95,1.84,271.80,1.77,273.60,1.69,270.64,1.57,272.49,1.29,278.01,1.23,267.74,1.21,266.71,1.06,274.05,.85,269.15,.62,274.02,.33,266.94,.27,247.99,.32,238.75,.09,235.40
2019.02.16-16:00,1.51,273.37,1.53,275.88,1.83,273.95,1.78,274.71,1.72,269.97,1.59,273.57,1.29,276.61,1.25,266.37,1.21,268.28,1.02,275.96,.81,270.37,.56,274.92,.29,266.90,.24,249.29,.29,242.27,.08,239.71
2019.02.16-17:00,1.40,269.26,1.47,271.47,1.79,275.65,1.77,275.80,1.74,270.17,1.59,274.58,1.31,274.85,1.27,265.82,1.20,270.26,.97,277.85,.78,272.50,.51,275.99,.25,266.38,.20,249.71,.25,244.89,.06,242.57
2019.02.16-18:00,1.31,265.40,1.46,268.19,1.76,277.16,1.77,277.09,1.76,271.77,1.59,275.52,1.33,273.36,1.30,266.09,1.18,272.14,.91,279.49,.74,275.32,.47,276.42,.21,262.17,.17,245.43,.20,243.71,.05,239.32
2019.02.16-19:00,1.28,262.22,1.46,266.93,1.71,277.81,1.77,278.09,1.78,274.26,1.59,276.43,1.37,272.42,1.31,267.01,1.14,273.78,.85,280.55,.71,278.45,.44,275.96,.18,253.45,.15,236.52,.17,238.54,.04,229.49
2019.02.16-20:00,1.28,260.24,1.46,266.47,1.66,277.59,1.76,278.74,1.79,277.16,1.57,277.00,1.41,271.79,1.32,267.97,1.11,274.75,.81,280.53,.67,281.04,.42,274.68,.19,245.36,.15,230.36,.16,234.22,.04,220.80
2019.02.16-21:00,1.27,257.93,1.44,265.51,1.59,276.48,1.70,278.74,1.75,279.55,1.53,276.74,1.43,271.01,1.31,268.56,1.09,274.80,.79,279.13,.65,282.18,.43,273.28,.22,244.64,.17,234.51,.16,238.18,.05,223.75